Location: Peebles
(55.6412°N, 3.1714°W)
Time: 09:12:32
(UTC+00:00)

NOAA 17 - Visible Passes

Search period start: 28 November 2023 00:00
Search period end: 08 December 2023 00:00
Orbit: 798 x 815 km, 98.7° (Epoch: 27 November)

Date Brightness Start Highest point End Pass type
(mag) Time Alt. Az. Time Alt. Az. Time Alt. Az.
28 Nov 7.7 03:38:20 10° N 03:38:34 11° N 03:38:34 11° N visible
28 Nov 7.3 05:19:26 10° N 05:19:39 11° NNW 05:19:39 11° NNW visible
29 Nov 7.4 04:54:21 10° N 04:54:41 11° N 04:54:41 11° N visible
30 Nov 7.5 04:29:26 10° N 04:29:44 11° N 04:29:44 11° N visible
01 Dec 7.6 04:04:36 10° N 04:04:47 11° N 04:04:47 11° N visible
03 Dec 7.5 04:55:53 10° N 04:55:57 10° N 04:55:57 10° N visible
04 Dec 7.6 04:30:57 10° N 04:31:00 10° N 04:31:00 10° N visible
